Theta_e
326 327 326 325 325 325 325 322 327 324 323 329 326 327 325 319 317 318 319 317 317 315 313 315 316 318 317 317 320 318 315 322 323 316 316 313 312 314 313 314 315 315 315 316 316 316 315 314 311 306 300 298 298 298 298 298 298 298 299 299 299 299 299 300 301 301 301 302 302 302 303 304 303 302 303 302 302 302 302 302 304 306 306 307 307 307 307 307 307 307 307 308 308 308 308 306 304
326 327 325 324 324 326 324 322 331 327 324 328 325 327 323 316 318 323 325 322 318 313 312 313 315 316 312 312 314 314 315 316 315 313 313 312 313 314 313 314 314 314 314 314 314 313 312 308 303 299 298 298 298 298 298 299 298 299 299 299 300 300 300 300 300 301 301 301 301 300 302 303 303 303 303 302 301 301 302 302 303 304 305 306 306 307 306 306 307 306 307 307 307 307 306 304 303
326 325 324 324 324 324 322 322 331 328 325 328 327 326 318 320 326 324 320 316 311 310 312 312 314 315 313 313 312 314 316 313 313 314 312 312 313 313 315 314 313 312 311 311 310 308 305 301 298 297 298 298 298 298 299 299 299 299 299 299 300 301 300 300 300 300 300 300 300 300 301 302 302 302 302 302 302 301 301 302 303 303 304 305 306 306 306 306 306 306 306 306 306 306 305 303 303
324 324 323 322 322 322 325 325 329 328 326 327 327 325 320 326 328 318 311 309 309 311 311 311 312 312 313 315 312 312 312 311 312 313 313 313 312 313 314 313 311 309 307 306 304 301 299 297 298 298 298 298 298 299 299 299 299 299 299 299 299 300 300 299 299 299 299 299 299 300 301 302 300 300 300 300 301 302 301 301 302 303 304 305 305 305 305 305 305 305 305 305 306 306 304 303 303
323 323 323 322 321 321 324 320 321 325 326 327 326 323 323 327 324 315 308 308 309 310 310 311 311 308 310 312 310 311 309 309 309 310 312 312 312 312 312 311 308 306 304 302 299 298 297 297 298 298 298 298 298 298 299 299 299 299 299 299 298 298 298 298 298 298 298 298 298 299 300 301 301 300 299 299 300 302 301 301 302 302 303 304 304 304 304 304 304 304 304 305 305 305 304 304 302
320 322 321 321 319 317 322 320 320 324 324 324 324 324 321 319 316 311 307 307 307 307 308 308 308 306 306 307 308 309 308 307 308 309 310 310 310 310 310 308 306 303 301 299 297 297 297 298 298 298 298 298 298 298 299 298 299 298 298 298 298 298 297 297 297 297 297 297 297 298 298 300 302 302 300 299 299 300 300 301 302 301 302 303 303 304 304 304 303 303 303 304 304 304 304 303 302
319 321 318 320 318 315 323 325 324 325 321 317 320 325 319 311 309 309 308 308 308 306 307 307 306 306 305 305 307 307 307 307 307 308 308 309 308 308 308 305 303 301 299 297 297 297 298 298 298 298 298 298 298 298 298 298 298 298 298 297 297 297 297 297 296 296 296 296 296 296 296 297 300 301 300 298 298 298 299 300 301 300 302 302 303 303 303 303 303 302 302 303 304 304 303 303 301
320 320 316 321 321 317 322 320 320 322 316 311 313 317 314 310 308 310 311 310 310 307 306 307 305 307 307 305 306 306 306 306 306 307 307 306 305 305 305 303 302 299 298 297 297 297 298 298 298 298 298 298 298 298 298 297 297 297 297 296 296 296 296 296 296 296 296 296 296 295 296 295 296 298 297 296 296 296 297 299 300 301 302 302 302 302 302 302 302 302 301 302 303 303 302 302 300
319 319 315 320 321 319 323 319 317 317 315 314 312 311 311 312 310 310 312 309 309 307 307 307 305 307 307 304 305 306 305 305 306 306 305 304 302 302 303 301 300 299 297 297 297 297 298 298 298 298 298 297 297 297 297 297 297 296 296 296 296 296 296 296 295 295 295 295 295 295 295 295 294 295 295 295 295 295 296 298 300 301 301 301 301 301 301 301 300 301 301 301 302 302 301 301 299
317 317 314 317 320 321 323 320 319 317 315 313 311 310 311 314 310 308 312 310 308 308 308 307 305 306 305 304 305 305 305 305 306 305 304 303 302 301 301 300 298 298 297 297 297 298 298 298 298 297 297 297 297 297 296 296 296 296 296 296 295 295 295 295 295 295 295 295 295 295 295 294 294 294 294 294 295 295 295 296 298 300 301 300 300 300 300 299 299 300 300 300 300 300 300 300 298
316 314 313 317 319 319 322 321 320 320 316 310 309 309 311 313 310 308 309 310 309 307 307 308 307 306 304 305 305 305 305 305 305 305 304 304 302 300 300 298 297 297 297 297 297 298 298 298 298 298 297 297 296 296 296 296 296 296 296 295 295 295 295 295 295 295 295 295 295 295 295 294 295 295 295 295 295 295 295 295 295 297 298 299 299 299 299 299 299 299 299 299 299 299 300 299 298
315 314 321 323 319 318 319 320 319 320 318 317 316 312 311 312 311 312 311 311 310 307 308 309 308 307 306 305 306 305 305 305 305 305 305 304 301 299 299 298 297 297 297 297 297 298 298 297 297 297 297 296 296 296 296 296 296 296 296 296 295 295 295 295 295 295 295 295 295 295 295 295 295 295 295 295 295 295 295 295 295 295 296 296 297 297 297 298 299 299 298 299 299 299 299 299 297
314 314 324 322 316 318 316 317 319 319 320 319 315 312 312 311 311 313 311 310 308 309 310 309 308 307 306 306 306 305 304 305 305 305 305 303 300 299 298 297 297 297 297 297 297 297 297 297 297 297 297 296 296 296 296 296 296 296 296 295 295 295 295 295 295 295 295 295 295 295 295 295 295 295 295 295 295 295 295 295 295 295 295 295 296 296 296 297 297 298 297 298 299 299 299 298 296
314 314 321 318 313 317 315 316 318 316 318 317 311 310 313 311 311 312 311 313 310 310 311 308 308 307 306 305 306 305 304 305 305 305 304 302 300 298 298 297 297 297 297 297 297 297 297 297 297 297 296 296 296 296 296 296 296 296 296 296 296 296 295 296 295 295 295 295 295 295 295 295 295 295 295 295 295 295 295 295 295 296 296 296 296 296 296 296 297 297 297 298 298 298 298 298 297
312 312 320 319 313 315 315 314 315 316 316 315 311 310 312 311 311 311 312 316 312 310 309 307 307 306 306 306 305 305 305 305 304 305 304 302 299 298 297 297 297 297 297 297 297 297 297 297 296 296 296 296 296 296 296 296 296 296 296 296 296 296 296 295 295 295 295 295 295 295 295 295 295 295 295 295 295 295 295 295 295 295 296 296 296 296 296 296 296 297 297 297 298 298 298 298 298
312 313 317 318 314 314 315 312 312 316 314 309 308 309 312 312 310 310 311 312 311 309 309 307 307 306 306 305 304 304 304 304 304 305 304 302 300 298 298 297 297 297 297 297 297 297 296 296 296 296 296 296 296 296 296 296 296 296 296 296 296 296 296 295 295 295 295 295 295 295 295 295 294 294 294 294 294 294 295 295 295 295 295 296 296 296 296 296 296 297 297 297 298 298 298 298 298
309 313 317 316 315 314 315 314 312 315 315 307 304 309 315 314 310 309 309 309 309 309 308 308 307 307 306 304 304 304 304 304 304 304 303 302 301 299 298 297 297 297 297 297 297 297 296 297 296 296 296 296 296 296 296 296 296 296 296 296 296 296 295 295 295 295 295 295 294 294 294 294 294 294 294 294 294 294 294 295 295 295 295 296 296 296 296 296 296 296 296 297 297 298 298 298 299
311 316 315 313 316 316 316 316 310 310 313 307 304 308 313 314 310 308 308 307 308 307 308 308 307 307 306 306 304 304 304 304 304 304 304 303 302 301 299 298 298 297 297 297 297 297 297 297 296 296 296 296 296 296 296 296 296 296 296 296 296 296 295 295 295 295 295 294 294 294 294 294 294 294 294 294 294 294 294 294 294 295 295 295 295 296 296 296 296 296 296 296 297 297 297 298 298
312 315 312 315 319 313 309 309 306 306 308 305 304 307 309 311 308 306 308 306 304 306 307 306 307 307 307 307 306 305 304 304 304 304 304 304 303 303 301 300 299 298 297 297 297 297 297 297 296 296 296 296 296 296 296 296 296 296 296 296 296 295 295 295 295 295 295 295 294 294 294 294 294 294 294 294 294 294 294 294 294 295 295 295 295 295 295 295 296 296 296 296 296 296 297 297 297
308 308 312 320 316 308 305 305 305 305 305 303 303 305 306 309 307 305 306 305 303 305 307 305 306 307 307 307 306 306 304 304 304 304 304 304 304 303 302 301 299 298 298 297 297 297 297 296 296 296 296 296 296 296 296 296 296 296 296 296 296 296 295 295 295 295 295 294 294 294 294 294 293 293 293 294 294 294 295 295 295 295 295 295 295 295 295 295 295 295 295 296 296 296 296 296 296
306 307 315 315 305 306 307 303 303 303 303 303 303 304 305 307 306 305 304 306 307 305 306 306 306 306 306 306 306 306 305 304 304 304 304 303 303 303 302 301 299 298 297 297 297 296 296 296 296 296 296 296 296 296 296 296 296 296 296 296 296 296 295 295 295 295 295 294 294 294 294 294 294 293 293 294 294 295 295 295 295 295 295 295 296 296 296 295 295 295 295 295 295 295 295 295 296
308 308 308 305 301 306 305 302 303 302 302 303 303 304 305 305 305 305 304 307 309 306 305 306 305 305 305 305 305 305 304 304 304 303 304 303 303 302 302 301 299 297 297 297 296 296 296 296 296 296 296 296 296 296 296 296 296 296 296 296 296 296 296 295 295 295 295 294 294 294 294 294 294 294 294 294 294 295 295 295 295 295 295 296 296 296 296 296 296 296 296 295 295 295 295 295 295
309 308 302 301 302 304 303 302 303 302 302 302 303 304 303 302 303 304 303 305 307 306 305 305 304 304 304 304 304 304 304 304 304 304 303 303 302 302 301 301 299 297 296 296 296 296 296 296 296 296 296 296 296 296 296 296 296 296 296 296 296 296 296 295 295 295 295 295 295 295 295 295 295 295 295 294 295 295 295 295 295 295 295 295 295 296 296 296 296 296 296 296 295 295 295 294 294
307 309 303 302 302 302 303 302 302 302 302 302 302 303 302 302 303 301 302 305 305 304 304 303 303 303 303 304 304 304 304 303 303 303 302 302 302 302 301 300 300 298 296 296 296 296 296 296 296 296 296 296 296 296 296 296 296 296 296 296 296 296 296 295 295 295 295 295 295 295 295 295 295 295 295 295 295 295 295 295 295 295 295 295 295 296 296 296 296 296 296 296 296 296 295 295 294
306 308 303 301 302 302 302 302 302 302 301 301 301 301 301 302 301 300 301 303 303 302 303 303 304 303 302 303 303 303 303 303 302 302 302 302 301 301 301 300 299 298 297 296 296 296 296 296 296 296 296 296 296 296 296 296 296 296 296 296 296 296 296 296 295 295 295 295 295 295 295 295 295 295 295 294 294 295 294 295 295 295 295 295 295 295 295 295 295 295 295 296 296 296 296 295 295
305 305 303 301 301 302 301 301 301 301 301 301 300 300 301 300 300 301 302 302 302 302 303 304 304 303 301 301 302 303 302 302 301 301 301 301 301 300 300 300 299 298 297 296 296 296 296 296 297 297 297 297 297 297 297 296 296 296 296 296 296 296 296 296 295 295 295 295 295 294 294 294 294 294 294 294 294 294 294 294 294 294 294 294 294 294 294 294 295 295 295 295 295 295 295 296 295
305 303 302 301 301 302 301 301 300 300 301 300 301 301 300 299 302 304 303 302 302 303 303 304 304 302 300 301 302 302 302 301 301 301 301 300 300 300 300 299 299 298 297 296 296 296 296 297 297 297 297 297 297 297 296 296 296 296 296 296 296 296 296 296 296 296 296 295 295 294 294 294 294 293 293 293 293 293 294 293 293 293 293 293 293 293 293 294 294 294 294 294 294 294 294 295 295
303 302 303 301 301 303 301 300 300 301 301 300 301 302 300 299 302 303 301 301 302 303 304 303 303 302 300 301 301 301 301 301 300 300 300 300 299 299 299 298 297 297 296 296 296 296 296 296 296 296 296 296 296 296 296 296 296 296 296 296 296 296 295 295 295 295 294 294 294 293 293 293 293 292 292 292 292 292 292 292 292 292 291 291 291 291 291 292 292 292 292 292 292 292 293 293 294
303 303 307 308 307 308 302 300 300 300 302 301 300 305 307 304 301 300 299 301 302 302 303 302 302 301 300 300 301 301 300 300 300 299 299 298 298 298 297 296 296 296 296 295 295 296 296 296 296 296 295 295 295 295 295 295 295 295 295 295 294 294 293 293 292 292 292 292 291 291 291 291 291 291 291 290 290 290 291 290 290 290 289 289 289 289 289 290 290 290 290 290 290 291 291 292 292
304 304 308 312 314 313 303 298 300 300 302 301 301 309 315 307 298 298 300 301 302 302 302 301 301 300 299 300 300 300 299 299 299 298 298 297 296 296 296 295 295 295 295 295 295 295 295 295 295 295 295 295 295 295 295 295 295 295 294 294 294 293 293 292 292 292 291 291 290 290 290 290 290 290 290 289 289 289 289 289 289 289 288 288 288 288 288 288 288 289 289 289 289 289 289 290 290
308 305 310 313 311 317 308 298 300 301 301 300 302 309 313 306 298 298 301 301 302 302 301 300 300 299 298 298 298 299 298 297 297 296 296 295 295 295 295 294 294 295 295 295 295 295 295 295 295 295 295 295 295 295 295 295 295 294 294 293 293 293 292 292 291 291 291 291 290 290 290 290 290 290 290 289 289 289 289 289 288 288 288 288 288 288 288 288 288 288 288 288 288 288 288 288 288
312 308 317 315 308 318 313 297 296 302 302 300 303 309 311 305 299 298 300 301 302 300 299 299 298 297 297 297 297 297 296 296 295 295 294 294 294 294 294 294 294 294 294 294 295 294 295 295 295 295 295 295 295 295 295 295 294 294 293 293 292 292 291 291 290 290 290 290 290 290 290 290 290 289 289 289 289 289 289 289 289 288 288 288 288 288 288 287 287 287 287 287 287 287 287 287 287
315 309 314 315 309 314 312 301 295 298 301 301 303 307 310 304 297 297 299 299 301 300 298 296 296 296 296 296 296 295 295 294 294 294 294 294 294 294 294 294 294 294 294 294 294 295 295 295 295 295 295 295 295 294 294 294 293 293 292 292 291 290 290 290 290 289 289 289 289 289 289 289 289 289 289 289 289 289 289 289 289 289 289 288 288 288 288 288 287 287 287 287 287 286 286 286 287
317 311 311 311 309 308 310 308 299 297 301 302 303 304 307 303 296 296 298 297 298 298 296 295 295 295 294 295 294 294 294 294 294 294 294 294 294 294 294 294 294 294 294 294 295 295 295 295 295 295 294 294 294 293 293 293 292 292 292 291 290 290 289 289 289 289 289 289 289 289 289 289 289 289 289 289 289 289 289 289 289 289 288 288 288 288 288 288 287 287 287 287 287 286 286 286 286
310 310 310 310 309 306 308 310 303 300 303 303 304 304 304 302 295 294 295 294 295 294 293 293 293 293 293 293 293 293 293 293 293 293 293 293 293 294 294 294 294 294 294 294 294 294 294 294 294 294 294 293 292 292 292 292 292 292 291 290 290 289 289 289 288 288 288 288 288 288 289 288 289 289 288 288 289 289 289 289 289 289 288 288 288 288 288 288 287 287 287 287 287 286 286 286 286
306 307 307 307 308 306 307 308 302 299 303 305 305 305 304 299 295 293 293 293 293 292 292 292 292 292 292 292 292 292 293 292 292 293 293 293 293 293 294 294 294 294 294 294 294 294 294 293 293 294 293 292 292 292 292 292 292 291 291 290 290 289 289 289 288 288 288 288 287 287 287 288 288 288 288 288 288 288 289 289 289 289 288 288 288 288 288 288 287 287 287 287 287 287 286 286 286
305 306 306 306 305 305 305 306 301 297 303 308 304 304 303 296 294 293 293 293 292 292 292 292 292 292 292 292 292 292 292 292 292 293 293 293 293 293 293 293 293 294 293 293 294 293 293 293 293 293 292 292 292 292 292 291 291 290 290 290 290 290 290 289 289 288 288 287 287 286 286 286 286 287 288 288 288 288 288 288 288 288 288 288 288 288 288 288 287 287 287 287 287 287 286 286 286
305 305 305 306 305 306 304 303 302 299 303 308 303 303 301 294 293 293 292 293 292 292 292 292 292 292 292 292 291 291 291 292 293 293 292 292 293 293 293 293 293 294 293 293 293 292 292 292 292 292 291 291 291 291 290 290 290 290 290 290 290 290 290 289 288 288 287 286 286 285 285 284 284 285 285 286 286 286 286 286 286 286 287 287 287 287 287 287 287 287 287 287 287 286 286 286 286
305 305 305 307 306 306 305 303 303 302 303 307 305 303 300 294 293 293 292 292 291 292 292 291 292 291 291 291 291 291 291 292 292 292 292 292 292 292 293 293 292 293 292 292 292 291 291 291 291 291 290 290 290 290 290 290 290 290 290 290 290 289 289 288 287 286 286 286 285 285 284 283 283 283 283 283 283 283 284 284 284 285 285 286 286 287 287 287 287 287 287 286 286 286 286 286 286
306 305 305 309 306 305 307 305 304 303 302 304 304 302 298 295 295 293 292 292 291 292 292 291 292 291 291 291 290 291 291 291 291 291 291 291 292 292 292 292 291 292 292 291 291 291 290 290 290 290 289 290 290 290 290 290 290 290 290 289 289 288 288 287 286 286 285 285 284 284 283 283 282 282 281 281 281 281 282 282 282 283 284 284 285 285 285 286 286 286 286 286 285 285 286 285 285
309 306 305 307 305 303 305 304 303 303 301 300 302 304 299 294 295 294 293 293 292 292 292 292 292 291 291 290 290 290 290 291 291 290 291 291 291 291 291 291 291 291 291 290 290 289 289 289 289 289 290 290 290 290 290 290 290 289 289 289 288 287 286 286 285 285 284 283 282 282 281 281 280 280 280 280 280 280 280 281 281 282 282 283 283 283 284 284 284 285 285 285 284 284 284 285 285
310 307 303 303 304 303 304 304 303 305 304 299 300 307 303 294 294 295 293 292 291 291 291 291 291 291 290 290 289 290 290 290 290 290 290 290 290 290 290 290 290 290 290 289 289 289 289 289 290 290 290 290 289 289 288 288 288 287 287 286 286 285 284 283 283 282 281 280 280 279 279 279 279 279 278 278 279 279 279 280 280 280 281 281 282 282 282 282 283 283 283 283 283 283 283 283 284
308 305 301 302 303 303 303 303 303 306 305 299 298 305 304 297 295 295 293 293 292 291 291 290 290 290 289 289 289 289 289 289 290 290 289 290 290 290 290 290 290 289 289 289 289 289 290 290 290 289 289 288 288 287 287 286 286 285 285 284 283 282 281 281 280 279 279 278 278 278 278 278 278 278 277 277 278 278 278 278 278 279 279 279 280 280 280 281 281 282 282 282 282 282 281 281 282
306 302 300 302 301 301 302 301 302 304 302 300 299 300 303 301 296 294 294 294 293 292 291 290 290 289 289 289 289 289 289 289 289 289 289 289 290 290 289 289 289 289 289 289 290 290 290 289 289 288 287 287 286 285 285 284 284 283 283 282 281 280 279 279 278 278 277 277 277 277 277 277 277 277 277 277 277 277 277 277 277 277 277 278 278 278 278 278 279 279 279 280 280 280 280 280 280
305 300 299 300 299 300 301 301 304 301 300 304 302 298 303 304 296 294 295 295 294 292 291 290 289 288 288 288 289 289 289 289 289 289 289 289 289 289 289 289 289 290 290 290 290 289 289 288 287 286 286 285 285 284 284 283 282 282 281 280 279 278 277 277 277 276 276 276 276 276 277 277 277 277 276 276 276 276 276 275 276 276 276 276 276 276 276 277 277 277 277 277 277 277 277 277 277
300 297 298 298 298 299 300 301 304 302 303 307 303 298 303 305 297 294 296 295 295 293 290 290 289 288 288 288 288 289 288 289 289 289 289 289 289 289 289 290 290 290 290 290 289 288 287 286 286 285 285 284 283 283 282 281 281 279 278 277 277 276 276 276 276 276 276 276 276 276 276 276 276 276 276 275 275 275 275 275 275 275 275 275 275 275 275 275 276 276 276 276 276 276 276 276 276
297 298 300 299 298 298 300 302 302 304 309 306 300 298 301 304 299 295 295 294 293 293 290 290 289 288 288 288 288 288 289 289 289 289 289 289 290 290 290 290 290 290 289 289 288 287 286 285 284 284 283 283 282 282 280 279 278 277 276 276 275 275 275 274 275 275 275 275 275 275 275 275 275 275 275 275 275 275 275 275 274 274 274 274 274 274 274 275 275 275 275 276 276 275 275 275 275
297 301 302 302 302 300 302 304 303 306 309 303 299 299 301 304 301 294 293 291 290 292 291 290 289 288 288 288 288 289 289 289 289 289 290 290 290 290 290 290 289 289 288 287 286 285 284 284 283 283 282 282 281 279 278 277 276 275 275 275 274 274 274 274 273 274 274 274 274 274 274 274 274 274 274 274 274 274 274 274 274 274 273 273 274 274 274 274 274 274 274 275 275 275 275 274 274
301 303 303 305 308 305 306 308 306 307 306 300 299 300 300 301 297 292 290 289 290 291 290 290 289 288 288 288 289 289 289 289 290 290 290 290 290 289 289 289 288 287 286 285 285 284 283 282 282 281 281 280 278 277 276 275 275 275 274 274 274 273 273 273 273 273 273 273 273 273 273 273 273 273 273 273 273 273 273 273 273 272 273 273 273 273 273 273 273 273 274 274 274 274 274 274 274
302 302 304 307 307 306 308 307 303 304 304 300 297 298 301 301 294 289 289 289 289 290 290 290 289 289 289 289 289 290 290 290 290 291 290 290 289 288 288 287 287 286 285 284 283 282 281 281 281 280 279 278 276 275 274 274 274 274 273 273 273 272 272 272 272 272 272 272 272 272 272 272 272 272 272 272 272 272 272 272 272 272 272 272 272 272 272 272 272 273 273 273 273 273 274 274 274
300 299 300 305 304 303 305 305 304 304 303 299 297 299 302 301 294 289 288 288 288 289 290 290 289 290 290 290 290 290 290 290 290 290 289 289 288 287 287 286 285 284 283 282 281 281 280 280 280 279 278 276 275 274 273 273 273 273 272 272 272 271 271 271 271 271 271 271 271 271 271 271 271 271 271 271 271 271 271 271 271 271 271 271 271 271 272 272 272 272 272 272 272 273 273 273 273
299 298 300 304 302 300 303 303 301 299 300 301 301 300 297 294 291 289 289 289 288 288 289 289 289 290 290 290 290 290 290 290 289 289 289 288 287 286 286 284 283 282 282 281 280 280 279 279 278 277 276 274 273 273 272 272 272 271 271 271 271 271 270 270 270 270 270 270 270 270 270 270 270 270 270 270 270 270 270 270 270 271 271 271 271 271 271 271 271 271 271 272 272 272 272 272 272
300 300 301 299 297 299 302 301 297 297 301 301 301 300 296 293 291 289 289 289 288 288 288 288 288 288 289 289 289 289 289 289 289 288 288 287 286 285 284 283 282 281 280 279 279 278 278 278 277 275 274 272 272 271 271 270 270 270 269 269 270 270 270 270 270 270 270 269 269 269 269 269 269 269 269 269 269 269 269 270 270 270 270 270 270 270 270 270 270 271 271 271 271 271 271 272 272
301 303 300 296 296 299 301 301 302 302 303 301 298 299 299 298 295 291 290 291 289 288 288 288 288 288 288 288 288 288 288 288 288 288 288 287 285 284 283 282 281 280 279 279 278 277 277 276 275 273 272 271 271 271 270 270 269 269 269 269 269 269 269 269 269 269 269 269 269 269 268 268 268 268 268 268 268 269 269 269 269 269 269 269 270 270 270 270 270 270 270 270 271 271 271 271 271
298 299 297 296 300 302 301 301 303 302 300 300 299 297 297 298 296 292 291 292 290 289 288 288 288 288 287 287 287 287 287 287 287 287 287 286 285 283 281 280 280 279 279 278 277 277 276 275 274 272 271 271 271 270 270 269 269 269 269 269 269 269 269 268 268 268 268 268 268 268 268 268 267 268 268 268 268 268 268 268 268 269 269 269 269 269 269 269 269 269 270 270 270 270 270 271 271
297 298 298 299 301 301 299 298 300 301 300 300 300 299 297 295 292 291 290 291 291 289 288 288 288 288 287 287 287 286 286 286 286 286 286 285 283 282 280 280 279 278 278 277 276 276 275 273 272 271 271 270 270 270 270 269 269 269 269 268 268 268 268 268 268 268 267 267 267 267 267 267 267 267 267 267 267 267 267 267 268 268 268 268 268 268 269 269 269 269 269 269 270 270 270 270 270
299 300 300 300 300 299 298 296 296 299 301 300 299 300 298 292 289 290 290 290 290 289 289 289 288 288 287 287 287 286 286 285 285 285 285 284 282 280 280 279 278 278 277 277 276 275 273 272 271 271 271 270 270 270 269 269 269 269 268 268 268 268 268 267 267 267 267 267 266 266 266 266 266 267 267 267 267 267 267 267 267 267 267 267 267 268 268 268 268 268 268 269 269 269 269 269 270
298 299 297 298 299 299 300 298 296 297 299 299 298 300 297 291 289 290 290 290 290 289 288 288 288 288 287 287 286 286 286 285 285 284 284 282 281 280 279 278 278 277 277 276 275 273 272 271 271 271 270 270 270 269 269 269 268 268 268 268 268 267 267 267 267 267 266 266 266 266 266 266 266 266 266 266 266 266 266 266 266 266 266 266 267 267 267 267 267 268 268 268 268 268 268 268 269
Wind_Speed
2 2 2 3 4 5 3 3 2 2 1 1 1 0 2 1 1 2 2 2 1 4 7 5 11 15 7 1 3 0 1 4 3 2 1 2 3 7 11 9 9 11 11 11 11 12 11 9 8 7 5 4 3 2 2 4 5 6 7 8 9 10 11 12 13 13 13 13 13 13 13 11 11 12 12 12 12 12 12 11 11 11 11 11 11 11 11 11 11 11 11 11 11 10 9 9 10
1 2 2 2 3 5 4 2 1 1 0 2 2 2 2 1 1 3 4 4 1 4 7 8 13 12 4 2 1 1 1 4 3 2 3 4 5 9 12 10 11 11 11 11 11 10 10 9 7 6 4 4 3 4 5 6 7 8 9 9 11 12 13 13 14 14 14 14 14 13 13 12 12 12 12 12 12 12 11 11 11 11 11 11 11 11 11 11 11 11 11 11 11 11 10 10 11
1 2 2 2 2 3 2 1 0 1 2 4 3 2 1 0 4 4 3 4 2 7 9 9 11 8 3 2 1 1 3 5 5 3 2 4 5 9 13 12 12 11 11 11 11 11 10 8 7 6 5 5 6 7 8 8 9 9 10 11 12 13 13 14 14 14 14 14 14 14 13 13 13 13 13 13 12 12 11 11 11 11 11 11 10 10 11 11 11 11 11 10 11 11 10 11 11
0 2 2 3 3 1 2 2 1 3 2 3 2 3 2 3 4 3 2 4 6 9 9 9 7 5 6 3 2 3 5 5 5 5 4 4 4 9 12 11 12 12 12 12 11 11 9 8 7 7 7 8 8 9 9 9 10 11 12 12 13 13 14 14 14 14 14 14 14 14 13 13 14 13 13 13 12 11 11 11 10 11 11 11 10 10 11 11 11 11 11 10 10 10 10 11 10
1 1 2 3 3 1 3 1 1 2 4 3 1 3 4 5 4 3 3 6 9 9 8 9 4 3 6 6 4 2 3 3 4 7 6 5 7 10 11 10 11 12 13 13 11 10 8 8 8 8 9 9 10 10 10 10 11 11 12 12 13 14 14 14 14 14 14 14 14 14 14 14 13 13 13 13 12 12 11 11 10 10 11 11 10 10 11 11 11 10 11 10 10 10 10 11 10
2 1 1 2 2 2 2 1 1 2 4 4 2 3 4 5 5 5 6 7 8 7 7 8 3 2 3 5 7 5 3 1 2 7 7 6 8 11 11 10 11 12 13 13 11 10 9 9 9 9 10 10 10 10 11 11 11 12 12 12 13 13 13 14 14 14 14 13 14 14 14 13 13 13 13 13 12 12 12 11 10 11 10 10 10 10 10 10 10 10 10 10 10 10 10 10 9
2 1 1 1 3 2 2 2 3 3 3 4 3 3 4 4 7 9 7 6 6 5 7 8 4 3 2 3 6 9 9 5 1 4 6 8 8 10 11 10 11 12 13 12 11 10 9 10 11 11 11 11 11 11 11 11 11 12 12 13 13 13 13 13 13 13 13 13 13 13 13 13 13 13 13 13 13 12 12 11 11 11 10 10 10 10 10 10 10 10 10 10 10 9 9 9 9
2 2 1 2 1 3 2 1 3 3 3 3 3 5 4 3 10 10 6 5 4 6 7 8 6 2 3 3 3 5 9 9 5 3 5 8 8 10 10 10 11 12 13 13 12 11 10 11 12 12 12 11 11 12 11 12 11 12 12 12 12 12 12 12 12 12 11 11 11 11 12 12 12 12 12 12 12 12 12 12 12 11 11 11 11 10 10 10 10 10 9 10 10 9 9 9 9
2 2 1 1 1 1 1 2 3 3 3 4 4 6 5 4 11 9 6 3 3 7 8 9 8 3 3 4 5 4 6 8 7 5 7 8 8 9 9 10 10 11 13 13 12 11 11 11 13 12 11 11 11 11 11 11 11 11 11 11 11 11 11 10 10 10 10 10 10 10 10 10 11 10 10 11 11 11 11 11 11 11 11 11 11 10 10 10 10 10 9 10 10 9 9 9 9
1 1 1 1 1 1 3 2 2 2 4 4 6 9 7 6 12 9 6 4 4 7 7 10 10 7 3 3 6 5 6 6 7 8 9 8 7 9 10 11 10 10 11 12 12 11 11 10 12 12 11 11 11 11 10 10 10 10 9 9 9 9 9 9 9 9 9 9 8 9 9 9 9 9 9 9 9 9 10 10 11 11 11 11 10 10 10 9 9 10 9 9 9 9 9 9 10
0 3 3 2 1 2 4 3 3 4 4 4 7 11 10 9 11 8 6 4 6 7 7 10 7 8 5 4 6 6 7 6 7 10 9 7 8 10 11 12 13 11 9 10 11 11 11 10 9 10 11 10 9 9 9 8 8 8 7 8 8 8 8 8 8 8 8 8 8 8 8 8 8 8 8 8 8 8 8 9 9 10 10 10 10 10 10 10 9 9 9 9 9 9 9 10 10
1 1 3 2 2 3 3 2 4 5 5 4 4 5 8 13 11 6 8 6 7 8 7 9 4 4 4 3 4 4 5 6 9 11 9 8 10 12 12 12 14 13 12 11 11 11 10 10 9 9 10 9 8 8 7 6 6 6 6 6 6 6 7 7 8 8 8 8 8 8 8 8 7 7 7 7 7 7 7 7 7 8 8 9 10 10 10 10 10 10 9 9 9 9 10 11 10
3 2 4 2 3 2 2 2 3 5 6 3 3 3 9 14 10 7 10 7 7 7 5 11 7 2 3 3 3 2 4 6 9 11 10 10 12 14 13 13 14 15 14 13 12 11 10 10 9 8 8 8 7 6 5 4 4 4 4 5 5 5 6 6 7 7 7 7 7 7 7 7 7 7 7 7 7 7 7 7 6 6 7 7 8 9 9 9 10 10 10 10 10 10 10 11 11
4 5 4 1 0 2 3 2 2 3 5 4 1 6 11 9 7 8 9 6 8 7 2 7 9 4 3 4 4 4 5 7 9 11 11 12 13 14 14 14 15 14 15 15 13 12 10 9 8 7 6 6 6 5 4 3 3 3 3 4 4 4 5 5 5 6 6 6 7 7 8 8 8 7 7 7 7 7 7 7 7 7 7 7 7 8 8 9 9 10 11 11 11 11 11 11 11
6 6 4 2 1 0 3 2 1 2 5 3 1 7 11 6 4 7 8 5 6 9 3 5 9 4 2 3 1 2 6 7 10 12 12 14 14 15 15 15 16 15 15 16 15 13 11 9 8 6 5 5 4 3 3 2 2 2 2 3 3 3 4 4 5 6 6 6 7 7 8 8 9 9 8 8 8 8 8 8 8 8 8 8 8 8 9 9 10 10 11 12 12 12 12 12 12
7 6 4 1 2 2 3 3 1 1 5 3 4 6 7 6 5 5 7 5 4 7 7 7 10 7 3 4 4 5 6 8 10 12 13 15 15 16 16 16 16 16 16 16 15 13 12 10 7 6 4 3 3 3 2 2 2 2 2 2 2 3 4 5 5 6 7 7 8 8 9 10 10 11 11 11 10 10 10 9 9 9 10 10 10 10 10 10 11 11 12 12 13 13 14 14 13
8 4 3 1 2 2 4 4 3 3 5 2 5 8 5 3 6 5 4 6 6 6 8 8 11 12 9 6 5 4 5 7 10 13 14 14 15 16 17 18 17 17 17 16 15 13 11 9 7 5 3 2 2 2 2 2 2 2 2 2 2 3 5 6 6 7 7 8 9 10 11 11 12 13 13 13 13 12 12 12 11 11 11 12 12 12 12 12 13 13 13 14 14 15 15 15 15
6 3 2 3 3 4 5 7 7 3 1 1 5 8 6 1 4 6 3 5 8 9 10 11 12 14 14 13 10 7 5 7 10 12 13 14 14 15 16 17 17 17 17 16 15 13 10 8 6 4 2 2 2 2 2 2 2 2 2 2 3 4 5 6 7 8 8 9 10 11 12 13 13 14 15 15 15 14 14 14 14 13 13 14 14 14 15 15 15 15 15 16 16 16 17 17 17
3 3 2 4 4 5 5 6 7 4 1 2 3 6 8 4 2 5 3 4 5 7 9 11 15 17 18 18 16 14 10 9 10 11 12 12 11 11 14 15 15 15 15 15 13 11 9 7 5 3 2 2 2 1 1 1 1 1 1 2 3 4 5 6 7 8 8 9 10 11 12 13 14 15 16 16 16 16 16 16 16 16 16 16 17 17 17 17 18 18 18 18 19 19 19 19 19
2 3 2 5 5 4 4 5 5 5 3 1 1 4 7 6 4 4 3 3 2 6 9 10 15 17 18 20 19 18 14 12 12 13 13 11 10 9 11 12 13 13 13 13 12 10 8 6 5 3 3 3 2 1 1 1 1 2 2 3 4 5 5 6 7 8 8 9 10 12 13 14 15 15 16 17 18 18 18 17 18 19 18 19 19 19 19 19 20 20 20 21 21 21 21 21 21
2 4 3 4 4 1 3 4 3 4 3 1 1 2 4 6 7 6 3 1 3 8 11 10 11 10 10 15 18 18 17 16 15 15 14 13 11 10 10 10 11 11 11 12 11 9 8 6 5 4 4 4 3 3 3 3 3 4 4 5 5 6 6 7 7 8 9 11 12 13 14 15 15 16 17 18 18 19 19 19 19 20 21 21 22 22 21 22 22 22 22 22 23 23 23 23 24
2 4 3 3 4 1 3 2 3 3 3 1 2 2 3 3 7 10 7 5 6 5 6 6 5 4 5 9 12 15 17 17 16 16 15 13 11 11 11 10 11 11 11 11 10 8 7 6 5 4 4 4 4 4 5 5 6 6 7 7 7 8 8 8 9 10 11 12 14 15 16 17 17 17 18 19 19 20 20 21 21 22 23 23 23 24 23 24 24 24 23 23 24 24 24 25 26
2 3 2 2 4 3 1 1 3 4 4 4 3 4 4 3 5 9 13 15 12 8 7 9 8 7 7 7 8 10 12 14 14 13 12 12 11 11 10 10 11 13 12 11 9 8 6 5 5 4 5 5 6 7 7 7 8 9 9 9 9 10 10 10 11 12 14 15 17 18 19 20 20 20 20 21 21 22 22 22 23 23 24 24 25 25 25 25 26 26 26 25 25 25 25 25 26
3 3 3 2 4 5 4 3 4 5 6 5 5 5 5 5 4 5 13 19 16 14 15 14 14 12 11 8 7 7 7 9 10 11 12 11 11 10 10 10 12 13 12 10 9 7 6 5 5 6 7 7 8 8 9 9 10 10 10 11 11 11 12 13 14 16 17 19 20 21 22 22 22 22 22 23 23 23 24 24 24 25 25 26 26 26 27 27 27 27 27 27 27 27 26 26 26
3 3 3 1 5 6 6 6 6 7 7 6 6 6 6 6 4 6 13 15 10 9 10 10 11 12 13 10 6 5 5 7 9 10 12 11 11 11 12 12 12 13 12 10 8 7 6 6 6 7 8 8 9 9 9 9 10 10 10 11 12 13 14 15 17 18 20 21 22 22 22 23 23 23 23 23 24 24 24 25 25 25 25 26 26 26 27 28 28 28 28 28 28 29 29 28 28
3 4 3 3 4 4 6 6 6 7 6 6 6 5 4 3 4 5 6 6 2 3 6 9 10 7 9 9 6 5 5 6 8 9 10 11 11 12 12 11 11 11 12 10 7 6 5 5 6 6 7 7 7 7 7 8 8 9 10 11 12 14 15 17 18 19 19 19 20 20 20 21 21 22 22 23 23 24 24 24 24 25 24 24 26 26 27 28 28 29 29 29 29 29 30 30 30
2 3 5 5 5 4 4 5 5 5 5 4 4 4 3 2 1 3 5 7 5 7 9 10 9 5 2 6 7 6 6 7 7 8 9 10 11 11 11 10 10 9 8 7 4 2 2 2 3 3 3 3 3 4 4 5 6 7 9 10 12 13 15 16 17 17 18 18 18 19 19 20 21 21 22 22 23 24 24 25 25 25 24 24 25 26 26 27 28 29 29 29 30 30 30 31 31
1 2 5 6 5 3 2 3 3 3 2 2 2 3 3 2 2 4 11 10 9 10 9 8 8 5 1 4 6 7 7 6 6 7 7 7 9 10 10 8 7 6 4 3 3 4 3 3 3 3 2 1 1 2 3 4 5 6 8 9 11 12 13 14 15 16 17 17 18 18 19 20 20 21 21 22 23 24 24 24 24 24 24 23 24 25 26 26 28 28 29 29 30 30 30 30 31
1 2 2 6 6 4 4 3 1 2 1 0 1 3 4 1 1 9 16 11 9 10 10 9 8 5 1 4 5 6 6 5 5 6 6 4 5 7 7 5 4 6 8 8 8 8 8 7 7 7 7 5 4 5 5 5 6 7 8 9 10 11 12 13 14 15 16 16 17 18 18 19 19 19 20 20 21 22 22 22 22 22 22 23 23 24 25 25 27 27 28 29 30 30 31 31 31
2 2 1 5 7 4 4 4 1 1 0 1 1 3 5 2 4 13 19 16 13 12 13 12 8 3 2 4 5 6 6 6 6 5 5 5 7 7 9 12 11 11 14 14 12 12 12 12 11 10 10 8 8 7 7 6 7 8 9 10 11 12 14 15 16 16 17 17 18 18 18 18 18 18 18 18 18 19 20 21 21 22 22 22 22 23 24 24 25 26 27 28 29 30 31 31 31
1 1 2 2 3 4 4 4 2 2 1 1 2 1 5 3 5 16 20 18 17 15 15 11 6 4 5 6 7 8 10 9 9 10 9 11 14 16 18 20 19 18 19 17 15 15 14 13 11 10 9 8 7 7 7 7 9 10 12 13 14 16 17 18 18 19 19 19 20 20 20 20 20 20 19 19 18 18 19 19 20 21 22 22 22 22 23 23 24 25 26 27 28 28 29 30 30
3 1 3 2 0 5 6 6 4 3 1 1 3 2 6 4 2 16 23 21 19 16 12 8 5 8 10 11 13 15 17 17 17 19 21 23 25 25 25 25 23 22 20 18 17 15 13 13 11 9 8 7 7 8 9 10 12 13 14 15 16 18 18 19 20 20 21 21 22 22 22 22 22 21 22 21 21 20 20 20 20 20 20 21 21 21 22 23 24 25 25 25 27 27 28 28 29
4 1 3 3 1 3 5 5 5 4 1 3 2 2 4 1 2 19 25 21 19 15 10 7 8 13 16 18 21 24 26 28 29 30 31 31 30 28 27 26 23 21 19 18 16 13 12 11 9 7 8 8 9 10 12 13 14 15 15 17 17 18 19 20 21 21 22 22 22 23 23 23 23 23 23 23 23 22 22 23 22 22 22 22 21 21 21 21 22 24 24 24 25 27 27 28 28
3 2 1 3 2 2 4 4 5 7 2 2 3 2 6 2 7 23 25 19 16 12 8 9 15 19 23 26 29 32 35 36 35 34 32 30 29 28 26 24 22 20 18 16 13 11 10 9 8 8 8 9 10 11 12 13 14 15 15 16 17 18 19 20 22 22 23 23 23 24 24 24 24 24 25 25 25 25 25 25 25 25 25 25 25 24 23 21 21 22 23 23 23 25 27 28 29
2 3 2 3 2 2 4 4 3 7 3 2 3 4 7 4 10 21 23 16 13 9 9 15 21 24 28 31 34 36 37 36 33 31 30 29 27 26 24 22 20 18 16 14 12 10 9 9 8 7 8 9 10 10 11 11 12 14 15 16 17 19 20 21 23 24 24 25 26 26 27 27 27 27 27 27 27 27 27 27 28 27 28 28 28 27 26 24 24 23 23 24 23 23 24 26 27
3 3 3 4 4 3 5 5 3 3 3 3 4 5 5 6 8 15 20 17 17 15 17 20 23 26 28 31 34 34 35 33 29 28 28 27 26 24 22 20 18 17 15 12 10 9 8 8 7 6 8 9 9 10 11 13 15 16 18 19 21 22 24 24 25 27 28 28 29 29 29 29 29 29 29 30 30 29 29 29 29 29 29 30 30 29 28 27 26 26 26 26 26 26 25 24 25
2 1 2 3 4 5 5 4 4 1 0 4 3 2 3 6 6 11 18 19 20 17 18 20 21 24 27 30 32 32 33 31 27 27 26 25 24 22 20 19 16 15 13 10 8 8 8 7 7 7 9 10 11 13 15 17 20 21 23 25 26 27 29 30 31 32 33 32 32 31 31 31 31 31 31 31 31 31 31 30 30 30 30 30 30 30 29 28 27 28 28 28 28 29 29 27 25
2 1 1 3 3 6 4 2 5 2 1 3 1 3 4 5 5 11 17 16 15 15 15 18 21 24 25 28 30 30 31 29 27 27 25 24 23 20 18 16 13 11 11 9 8 9 8 7 8 9 10 11 13 15 16 18 21 24 27 29 30 31 32 34 36 37 37 35 34 33 32 31 31 31 31 32 31 32 32 32 31 31 31 30 30 29 28 28 28 28 29 29 29 29 30 29 27
2 1 0 3 3 4 4 2 4 3 0 3 3 4 3 4 5 10 16 13 13 16 17 17 20 23 23 24 26 28 29 28 27 26 24 22 20 18 15 14 12 11 10 9 8 8 7 8 10 10 12 14 15 17 19 21 24 26 29 31 32 34 35 36 37 37 36 35 34 33 32 32 31 30 30 30 30 31 31 31 31 30 30 30 30 29 28 28 28 28 29 29 29 30 29 29 27
1 1 1 4 3 2 2 3 4 3 1 2 3 3 1 3 4 8 14 16 18 20 20 19 20 21 20 21 24 26 28 27 27 25 23 20 18 16 14 13 12 9 8 8 8 8 10 11 13 14 15 18 19 22 24 26 28 29 31 32 33 35 36 38 38 37 35 34 32 31 30 30 30 29 29 28 29 29 29 29 29 28 28 28 29 29 29 29 29 29 28 27 27 28 29 29 28
3 3 3 3 3 2 4 3 5 4 1 1 3 3 1 3 4 5 9 15 18 19 21 21 20 20 20 22 24 25 26 25 25 23 20 18 15 14 13 12 9 8 9 11 12 13 14 15 17 18 20 22 25 28 30 31 33 34 35 35 37 39 40 40 40 38 36 34 32 29 28 28 27 27 26 26 27 27 28 28 28 28 28 28 28 28 28 28 28 27 27 27 26 25 27 29 30
4 3 4 4 2 3 4 5 6 4 3 2 4 3 2 2 4 3 4 8 12 14 18 18 18 19 21 22 23 23 24 23 21 20 18 15 14 13 11 10 9 10 12 14 15 16 17 18 20 22 25 27 29 32 34 36 37 39 41 42 43 44 44 42 39 37 35 34 32 30 29 27 27 26 25 25 26 25 27 27 27 27 28 27 28 28 27 27 28 27 27 27 26 25 26 29 31
3 2 3 3 2 1 3 4 3 2 2 2 3 1 3 2 3 3 3 5 7 9 13 14 16 17 18 20 21 21 21 20 19 17 15 13 12 10 10 10 11 13 14 15 15 17 19 22 24 26 29 31 33 35 37 40 42 44 45 45 44 43 42 39 36 34 32 32 31 30 29 28 27 26 25 25 25 24 24 24 24 25 25 25 26 27 28 28 28 28 28 28 28 27 26 28 30
3 2 2 1 1 3 3 0 1 2 2 3 3 2 2 2 1 1 2 5 6 7 8 10 14 16 17 18 18 19 19 17 16 14 12 11 10 10 11 12 13 14 15 16 17 20 22 24 27 29 31 33 35 38 41 44 46 46 46 44 42 39 38 36 34 32 30 30 30 29 29 28 27 26 26 25 25 23 23 23 23 23 23 24 25 26 27 28 29 29 29 29 29 29 28 29 30
4 2 2 2 2 2 2 3 2 1 2 3 4 3 1 3 0 1 1 3 4 4 4 6 10 13 15 17 17 17 16 14 13 11 10 10 10 11 12 12 13 14 16 18 20 22 24 26 28 30 32 35 38 42 45 47 46 45 42 40 38 36 34 33 32 31 30 30 30 29 29 29 28 27 26 25 25 24 24 24 24 24 24 25 25 26 27 28 29 29 30 30 30 30 29 30 30
3 2 1 1 3 2 2 3 2 2 3 2 5 3 1 3 1 0 1 2 1 2 3 4 8 11 13 15 15 14 13 11 10 9 9 10 10 12 13 13 15 17 19 20 22 24 26 28 30 32 35 38 42 45 47 47 43 39 37 35 34 33 32 32 32 31 31 30 30 30 29 29 29 28 27 26 26 26 26 26 26 26 27 26 27 28 28 29 30 30 31 31 31 31 30 30 30
3 1 1 2 4 4 2 2 3 4 3 3 5 3 1 2 2 1 1 1 2 3 4 4 7 10 11 13 12 11 10 8 8 8 9 10 12 13 15 17 19 20 21 22 23 25 27 29 32 36 39 42 45 47 46 42 36 33 32 31 31 30 31 32 33 32 32 31 31 31 30 30 29 29 29 28 28 29 28 28 29 29 30 30 30 29 29 30 30 31 31 32 32 32 31 31 31
3 2 2 2 3 3 3 4 3 4 2 4 5 3 1 1 2 1 3 5 3 4 6 5 7 9 10 10 10 8 7 6 6 8 10 12 14 16 18 20 21 21 21 22 23 25 29 32 35 39 42 45 46 44 39 35 32 30 30 29 29 29 30 32 33 33 32 31 31 31 30 30 30 29 29 29 29 30 30 30 30 32 33 34 34 33 32 31 31 31 31 32 32 32 32 31 32
5 3 4 4 4 4 4 4 2 1 3 2 1 2 1 2 1 3 5 7 5 5 9 9 9 9 9 8 7 6 4 5 7 10 12 14 16 19 20 21 21 21 21 22 25 28 31 35 39 42 45 45 44 38 33 31 29 29 28 27 27 28 29 31 32 32 31 30 30 30 30 30 30 30 30 31 31 31 31 32 33 34 35 35 35 35 35 34 33 33 32 32 32 32 32 32 32
5 2 3 3 2 4 4 3 2 3 4 3 2 2 2 1 2 4 5 6 7 10 11 10 10 9 7 6 5 4 6 7 9 12 14 16 18 20 21 21 21 21 21 23 27 30 34 39 43 45 45 44 40 35 31 30 29 27 25 25 26 27 29 29 30 30 30 29 29 29 29 29 30 31 31 32 32 33 34 34 34 35 35 36 36 36 36 36 36 35 35 34 33 33 32 32 33
2 1 3 3 2 2 2 3 1 4 5 4 4 1 2 2 2 3 4 7 11 14 12 10 9 7 5 4 5 7 10 10 11 14 16 18 19 19 20 20 20 20 22 25 29 33 38 42 44 45 44 41 36 33 31 30 29 27 25 25 26 27 28 29 29 29 29 28 28 28 28 29 30 31 32 32 33 34 35 35 35 36 36 36 37 37 37 37 37 37 37 37 36 34 34 34 34
1 1 3 3 1 3 1 2 3 2 3 3 3 1 2 1 2 2 5 9 12 14 13 12 10 7 6 6 7 10 11 11 13 16 17 18 18 19 19 18 18 20 23 27 32 37 41 43 45 44 41 37 34 32 31 29 27 26 26 27 27 27 28 29 28 28 28 27 28 28 28 29 30 31 33 33 34 34 35 36 36 37 37 37 37 37 37 37 37 38 38 38 37 36 36 35 35
1 2 2 2 2 4 2 2 1 3 2 2 1 1 1 2 1 2 3 4 6 9 11 12 11 10 10 9 9 11 12 13 16 18 19 18 18 18 17 17 17 20 25 31 36 40 43 44 44 41 37 35 33 33 31 27 25 26 28 29 28 28 28 28 28 28 28 27 27 28 29 29 30 32 34 34 35 35 35 36 37 37 37 37 37 37 37 37 37 38 38 38 38 37 37 37 36
3 2 1 2 1 3 3 1 3 4 1 3 2 2 3 2 1 2 2 1 2 4 5 7 8 9 10 11 13 14 14 15 18 20 19 18 17 16 16 15 18 22 28 34 39 42 43 44 41 37 35 34 34 33 30 27 26 28 30 30 30 30 29 28 28 28 28 27 27 28 29 30 31 33 34 35 36 36 36 36 36 37 37 36 37 36 36 36 37 38 38 38 38 38 38 38 37
5 1 1 1 2 2 2 2 2 3 2 4 4 3 2 1 1 2 4 3 1 1 2 3 5 7 8 12 16 17 16 16 18 20 19 17 16 15 14 15 20 26 32 37 41 43 44 43 39 35 34 33 33 32 29 27 28 30 31 31 31 31 31 30 29 28 28 28 28 28 30 31 32 33 34 35 36 36 36 37 37 37 37 37 37 37 37 37 37 38 38 38 38 37 38 39 38
4 3 3 3 3 2 0 1 1 1 2 3 4 5 2 1 2 4 5 2 2 1 2 2 4 6 10 15 17 17 17 17 19 20 18 17 14 13 13 18 24 31 36 40 43 44 44 41 37 35 34 34 35 33 31 31 32 33 33 33 33 32 32 31 31 30 29 29 29 30 32 33 34 35 35 36 36 36 37 37 38 38 38 38 38 38 37 37 38 38 38 38 38 37 38 39 39
4 4 5 4 2 0 1 1 2 2 0 1 2 5 4 1 1 2 2 1 3 2 4 4 4 8 14 17 17 18 20 21 22 20 16 15 12 12 17 23 30 35 39 43 45 45 42 38 36 36 36 36 36 34 33 33 34 34 34 34 34 34 33 33 33 32 31 31 31 33 34 35 36 36 37 37 37 37 37 38 38 39 39 39 39 38 38 38 39 39 39 39 39 39 39 39 39
2 3 2 1 1 2 3 2 2 2 1 3 2 3 5 1 1 1 1 3 4 5 6 6 8 12 15 17 19 21 23 24 24 20 14 11 11 16 23 28 33 38 42 45 45 43 40 37 36 36 35 36 35 34 33 34 34 34 34 34 34 34 34 34 34 33 33 33 34 35 36 37 38 38 38 38 39 39 39 39 39 39 39 39 39 39 38 38 39 39 39 39 39 39 40 40 40
Wind_Direction
313 241 198 188 196 194 201 168 149 6 77 224 259 211 247 220 139 219 231 201 245 204 180 164 152 152 139 137 200 190 133 167 166 130 138 147 144 161 153 144 145 149 157 173 189 200 210 218 228 236 249 252 238 195 142 120 111 105 100 94 89 81 74 68 62 59 55 53 52 49 48 51 46 44 47 45 44 41 39 39 37 34 32 32 30 29 28 28 28 26 27 27 27 23 14 6 346
294 227 206 193 206 207 209 150 153 323 25 258 257 190 258 331 207 233 214 191 207 166 158 154 156 162 148 58 134 31 252 217 207 150 121 118 135 160 155 145 145 148 153 162 174 184 195 202 212 219 217 197 169 141 123 114 109 103 98 93 89 81 75 71 66 62 58 55 54 51 48 50 48 46 48 47 47 43 40 39 36 33 30 31 30 28 28 27 26 25 25 26 26 20 13 8 359
220 223 228 219 208 199 182 90 149 153 198 241 263 235 209 239 228 256 233 194 127 143 150 154 160 178 187 35 56 187 253 244 226 201 152 133 142 162 160 154 151 152 155 161 170 177 185 190 194 188 173 156 136 122 113 108 105 99 95 90 85 81 76 72 67 64 61 58 55 54 51 50 49 46 46 45 46 46 43 39 34 31 30 30 30 29 27 26 25 24 24 25 24 21 11 10 6
252 228 246 234 202 151 91 55 120 139 203 226 270 266 211 215 231 258 223 162 143 150 155 156 163 201 206 248 247 234 266 248 226 217 196 177 165 164 164 163 160 158 159 164 171 175 175 174 170 158 143 129 118 113 110 105 101 96 93 88 84 81 78 74 69 65 63 61 58 55 52 53 52 49 48 44 43 45 44 41 34 28 28 29 28 27 25 25 24 23 23 22 23 23 13 14 8
345 255 253 255 216 155 90 60 84 149 219 181 204 259 222 222 228 230 173 153 154 157 168 165 163 206 209 229 217 229 256 230 222 208 192 186 174 168 170 172 167 162 162 165 168 166 163 160 150 136 123 115 113 110 108 103 100 97 92 88 84 81 78 76 72 67 65 62 60 55 52 54 54 52 52 48 42 43 43 38 31 28 27 27 25 24 23 22 22 21 21 21 21 22 18 19 8
354 341 268 253 157 126 123 188 190 217 234 170 202 247 221 226 201 170 149 150 158 161 173 176 167 173 219 235 217 221 213 164 185 193 187 177 174 174 178 179 170 163 162 163 160 156 158 150 135 125 120 116 115 112 107 103 99 94 89 85 82 79 76 74 72 67 65 61 60 57 52 52 52 50 50 49 44 41 42 35 30 31 28 25 24 21 20 19 19 19 17 19 18 18 19 19 7
344 276 298 115 111 57 130 195 210 233 245 175 195 226 226 231 173 147 140 149 167 183 181 187 180 155 248 242 222 231 227 233 184 180 183 174 178 180 181 179 170 163 160 158 155 153 153 141 131 128 124 121 116 110 103 98 93 89 85 81 79 76 74 71 69 66 63 61 59 58 55 51 49 49 48 48 46 43 41 37 34 34 30 25 23 21 20 18 17 16 14 14 14 14 15 16 7
322 270 327 96 99 14 106 214 243 217 246 216 235 231 238 219 170 156 160 170 179 194 191 193 179 165 246 223 226 230 225 235 228 195 169 166 173 178 179 178 170 163 158 156 155 152 150 140 133 130 125 120 111 104 96 91 86 83 80 78 76 73 72 68 66 64 61 59 57 57 54 52 50 50 50 48 47 45 40 37 36 33 29 26 24 22 20 17 16 15 13 11 10 10 8 13 4
274 281 308 68 176 351 17 285 271 236 259 256 258 232 235 211 182 170 171 189 189 186 192 187 172 183 250 220 236 241 227 229 218 198 165 155 155 171 174 170 167 163 158 154 155 150 149 143 135 130 122 114 105 99 92 87 81 78 76 74 73 70 69 65 64 61 59 56 54 53 51 50 49 47 48 46 43 43 38 34 35 32 29 28 25 23 20 18 17 13 11 9 7 7 5 5 354
268 347 132 76 136 288 307 279 262 257 253 255 270 243 235 206 187 184 177 186 194 179 185 182 183 213 243 243 245 246 237 226 207 193 172 159 153 168 167 161 160 159 158 153 153 151 147 143 136 128 119 112 105 98 90 84 78 74 71 69 68 67 67 64 63 59 56 54 50 48 45 43 41 40 38 37 36 35 34 29 29 29 28 27 23 21 20 17 15 12 8 6 4 4 1 353 346
347 37 101 84 78 255 261 255 263 264 268 295 287 253 236 203 180 187 187 189 194 175 164 170 193 221 224 269 254 244 237 223 198 189 184 178 161 164 165 161 156 152 156 153 153 154 148 142 137 131 123 115 106 99 90 83 75 70 64 62 61 62 63 61 61 58 55 51 47 44 39 36 30 29 27 25 24 23 25 23 22 21 21 20 16 14 12 11 9 8 2 359 358 356 351 346 346
197 35 77 96 174 222 229 252 268 279 297 301 283 241 210 187 172 188 194 195 191 180 184 179 186 197 191 267 241 233 227 210 193 186 185 179 161 162 167 165 160 155 156 159 158 156 151 142 135 132 127 119 110 100 91 85 74 66 59 56 54 54 56 56 57 55 53 49 44 40 34 31 23 18 15 12 10 9 9 10 12 10 10 7 5 5 3 2 359 358 356 351 351 348 344 346 346
186 144 95 144 196 177 179 240 274 302 306 253 235 187 173 177 186 214 190 183 176 169 212 203 200 188 206 258 239 233 205 199 194 185 177 169 166 165 169 170 168 165 162 163 163 159 154 146 139 132 125 118 110 103 93 86 74 62 51 46 46 48 50 52 54 52 48 44 38 32 25 19 14 10 4 359 356 355 353 352 355 352 353 351 350 351 350 350 349 347 345 342 342 341 340 344 341
181 161 126 168 176 118 169 256 283 279 277 254 259 173 171 180 210 220 179 173 195 182 201 201 200 223 255 258 264 248 205 196 190 184 178 171 172 170 172 174 175 175 169 166 168 166 159 153 147 139 124 113 105 99 89 82 74 58 44 36 36 41 46 46 45 42 35 30 24 19 13 6 360 355 351 347 342 340 339 337 337 334 333 333 330 331 333 334 334 334 333 332 331 330 332 335 333
181 158 114 118 95 329 201 244 238 200 258 243 169 174 181 201 217 211 192 197 221 200 187 178 188 207 243 205 207 193 185 189 184 186 184 177 176 174 177 178 180 181 174 171 173 173 169 166 159 149 133 115 104 96 86 77 69 53 41 29 28 31 35 33 26 21 15 10 7 3 0 357 351 345 340 336 332 327 326 326 324 324 322 319 317 315 316 318 319 320 320 321 321 322 323 324 323
176 153 78 96 196 259 216 210 124 178 264 229 165 173 184 223 209 201 212 221 232 207 207 200 197 210 211 168 143 134 155 175 180 188 188 184 182 180 182 183 184 183 180 178 178 179 178 176 169 156 144 127 115 108 100 85 72 52 44 30 26 21 16 11 7 3 0 355 351 349 349 347 345 341 336 332 328 323 318 316 314 314 313 310 308 306 305 307 307 309 310 310 313 314 316 315 315
165 143 72 207 198 212 202 192 179 197 267 267 177 180 177 249 215 204 229 225 229 222 222 222 217 224 227 202 178 160 163 179 183 189 192 191 190 188 189 188 190 188 184 183 183 185 183 179 174 163 156 146 138 129 115 95 76 52 47 31 17 8 1 356 353 351 350 350 346 343 342 340 340 337 334 330 325 321 316 311 308 304 303 302 301 301 300 300 300 300 302 302 304 306 307 308 308
152 120 127 210 197 197 189 184 195 189 321 239 189 195 196 265 205 205 243 236 236 239 237 236 234 233 235 233 225 224 210 198 193 194 198 198 199 200 198 196 196 192 187 186 186 187 185 182 178 173 171 173 170 144 113 96 75 52 31 10 4 353 350 347 344 344 342 343 340 337 335 333 333 331 328 325 321 317 314 309 306 302 299 297 295 296 296 295 295 296 296 296 297 299 299 301 301
131 98 159 223 202 206 200 184 198 203 249 177 190 207 208 229 188 190 229 245 230 237 245 238 238 240 238 239 237 237 231 216 207 203 208 209 214 216 210 205 200 194 189 186 186 187 186 185 187 188 191 205 198 164 130 96 56 26 354 344 343 335 335 337 334 333 332 331 330 327 326 325 324 324 321 319 317 313 311 309 307 304 300 298 295 293 293 291 291 291 291 292 292 293 294 295 295
134 116 213 245 213 223 228 209 210 216 229 212 205 203 211 228 202 183 218 258 236 230 242 233 241 251 247 244 243 241 234 225 219 213 217 222 227 227 219 214 204 193 187 184 187 192 193 197 204 207 211 222 215 207 215 220 287 281 293 306 310 312 313 317 317 317 317 317 317 316 315 315 314 313 313 311 311 309 308 308 307 305 304 301 299 297 295 292 290 289 288 288 288 289 289 290 291
159 155 203 225 186 220 265 235 232 219 230 253 166 166 239 238 214 213 204 277 275 242 245 243 252 269 260 249 245 242 237 229 224 219 220 223 225 225 221 217 205 190 184 187 193 198 202 206 211 216 221 224 223 227 241 259 268 270 281 289 290 293 296 297 299 301 303 305 304 304 302 302 303 303 303 304 305 305 306 307 306 305 305 304 303 302 301 298 295 292 289 288 286 286 286 286 287
175 200 222 187 162 241 317 238 213 215 218 199 148 172 257 234 218 226 209 220 253 241 250 263 266 274 257 247 242 239 236 230 226 224 225 226 225 223 219 212 202 192 191 193 193 196 201 205 214 221 228 230 237 246 253 264 268 271 275 277 279 279 278 279 281 285 287 290 290 290 290 290 292 293 295 297 300 302 304 305 305 305 305 305 305 305 305 303 301 298 295 292 289 287 285 284 284
208 265 300 226 202 230 320 158 208 230 214 196 188 213 223 208 239 234 223 234 247 256 272 282 278 264 250 244 240 237 233 230 230 231 231 229 225 224 223 213 203 197 195 196 194 196 201 209 225 233 239 241 243 250 254 261 265 268 268 266 266 266 267 271 274 278 280 282 284 285 287 288 290 292 294 297 300 303 305 306 306 306 306 306 307 307 307 305 303 301 300 298 295 292 289 287 285
178 274 318 293 246 235 256 263 243 231 219 221 208 210 210 208 242 240 243 256 263 268 275 283 279 263 249 247 251 247 236 230 229 229 229 227 227 228 226 218 212 205 199 198 198 203 214 225 237 243 242 243 247 253 259 265 268 268 268 266 266 268 272 275 278 281 284 286 289 291 293 294 296 298 300 302 304 306 308 308 308 308 308 308 309 308 307 305 303 303 302 301 300 298 296 293 290
157 237 288 280 250 242 252 258 245 228 226 231 211 218 224 218 246 258 270 284 283 270 279 294 297 274 247 242 256 248 228 221 218 220 222 222 224 227 225 221 218 215 211 209 213 222 235 242 244 248 248 251 256 262 268 270 272 271 271 272 274 277 279 283 286 289 292 294 296 298 298 299 300 302 305 306 307 309 309 309 309 309 308 309 308 307 305 304 303 303 302 302 301 300 299 297 295
188 214 263 238 240 252 254 244 229 225 228 218 212 244 237 220 273 267 299 337 2 331 323 321 330 314 242 228 237 229 215 215 214 217 220 219 219 224 225 222 220 220 221 222 231 245 251 253 249 251 257 261 265 267 272 271 271 273 274 278 281 285 288 291 294 296 298 299 300 300 301 301 302 304 305 306 307 307 307 307 307 306 306 306 303 302 302 301 302 302 302 302 301 300 299 298 297
206 240 257 236 250 266 253 240 223 223 228 210 216 266 246 158 232 272 352 10 351 333 333 332 345 360 214 206 212 205 201 209 212 214 217 217 215 221 223 220 220 219 224 228 235 247 232 235 232 232 251 259 272 275 281 285 286 290 292 295 297 299 301 302 303 303 303 303 302 302 302 302 304 305 305 306 306 306 305 305 304 304 304 303 300 300 300 300 300 300 301 301 300 299 298 297 297
246 291 262 257 281 282 266 254 240 225 221 206 216 263 259 154 151 330 343 344 341 350 357 1 5 10 80 181 199 193 195 199 203 207 210 213 209 215 219 213 214 201 195 191 142 126 129 128 136 118 97 81 19 340 341 334 330 330 325 321 319 317 316 314 312 310 309 308 308 307 307 307 308 308 308 307 306 306 305 305 306 306 305 304 302 302 301 300 299 299 299 299 298 297 297 296 295
258 27 287 294 341 5 352 354 278 191 178 348 343 301 305 258 50 13 12 8 2 13 18 14 12 12 95 168 188 185 185 181 184 196 194 182 174 192 192 160 159 157 136 127 125 121 113 107 105 100 91 82 70 55 39 24 13 3 353 345 341 337 333 332 330 328 325 322 320 317 315 314 313 313 312 311 309 308 307 307 307 307 307 306 305 303 301 300 299 298 298 296 296 296 295 295 293
273 54 54 315 355 353 340 8 348 167 144 314 22 314 297 288 26 25 25 24 24 29 26 18 17 30 128 159 173 165 153 148 147 151 150 126 120 137 138 122 123 130 123 121 125 119 113 111 109 106 100 93 86 75 60 44 27 13 5 1 357 354 351 349 347 343 338 333 328 324 321 318 316 315 312 311 310 308 307 307 307 308 308 308 306 305 302 301 300 298 298 296 296 296 295 294 293
298 13 40 10 1 293 313 4 9 74 28 296 80 261 270 271 38 26 14 8 11 16 19 19 27 75 120 133 138 130 118 119 118 113 112 112 116 121 123 120 120 122 121 123 123 121 119 116 113 109 103 94 85 70 50 32 20 14 9 6 2 359 356 352 348 345 340 335 331 328 323 320 316 313 309 306 304 302 303 304 306 308 308 308 307 305 304 302 300 299 299 298 297 297 296 295 294
20 347 315 350 60 276 314 5 38 60 7 4 84 218 285 272 44 15 2 353 354 2 16 30 67 105 116 117 118 116 109 108 107 108 111 116 120 121 121 121 122 122 123 123 120 122 121 112 107 101 91 73 54 38 27 19 12 11 8 4 2 358 354 350 346 344 340 335 332 328 323 319 315 310 306 302 300 297 297 298 299 302 303 305 305 305 304 303 301 299 299 300 299 298 298 297 296
5 48 273 290 323 304 321 3 29 35 4 350 37 214 288 260 40 1 358 353 350 357 19 61 110 117 117 114 113 112 109 108 108 111 115 118 121 121 122 122 122 122 120 119 117 117 112 102 97 82 67 48 34 26 19 13 8 7 4 359 357 354 351 347 345 341 337 333 329 325 320 316 312 308 303 299 297 295 294 294 294 294 294 294 296 297 299 301 301 300 298 300 301 300 300 300 299
333 27 313 269 264 304 311 325 5 26 51 312 3 226 256 268 8 358 1 2 355 358 27 93 118 116 115 113 111 110 110 110 110 113 116 118 120 120 120 120 120 119 116 116 113 106 100 87 75 61 51 40 30 21 14 9 3 0 357 354 352 349 347 343 339 336 332 327 323 319 315 311 308 304 301 298 295 293 292 292 291 291 290 289 290 290 291 293 295 297 297 298 301 302 301 301 302
291 304 302 300 294 263 273 276 334 20 33 270 322 277 268 314 1 359 6 16 20 35 78 109 114 111 111 109 107 108 109 108 109 114 118 118 119 118 118 119 118 116 113 110 106 99 92 78 65 52 41 35 24 13 5 358 353 350 347 346 344 341 340 338 334 330 326 321 316 312 309 306 303 300 298 296 294 293 290 289 289 289 289 289 289 289 290 290 289 290 291 291 293 296 298 300 303
223 246 225 269 283 267 254 259 292 22 11 267 261 265 291 349 357 354 5 30 51 68 94 103 105 105 106 105 104 106 106 106 110 116 119 119 118 118 118 118 116 115 110 106 105 96 83 70 51 31 25 21 7 352 346 342 341 341 339 338 338 337 335 334 331 327 323 318 313 309 305 302 300 297 295 293 292 291 289 288 288 288 287 287 287 288 289 289 288 288 287 287 287 288 289 292 297
153 163 200 260 263 280 271 272 302 10 248 264 250 275 348 8 353 353 11 38 52 61 87 93 99 103 103 104 103 103 104 106 114 118 119 119 118 118 118 117 117 115 109 104 97 78 63 50 24 14 14 3 350 345 343 341 339 339 338 337 337 335 332 329 327 324 322 318 313 308 304 301 297 294 291 290 289 288 288 287 286 285 285 284 284 285 286 286 286 286 286 286 286 287 287 289 293
65 134 270 304 247 264 266 256 307 336 177 274 354 31 26 28 8 9 24 40 41 49 82 92 98 102 101 103 102 103 105 109 117 117 117 119 117 118 117 115 114 107 99 89 74 61 47 32 17 14 7 353 349 347 343 340 338 337 337 334 332 330 327 325 324 323 321 318 313 308 305 302 298 295 292 290 289 288 288 286 285 284 283 282 282 282 283 284 284 284 284 284 284 285 287 289 293
59 107 356 311 263 274 296 302 321 355 231 280 357 19 30 34 26 30 34 44 50 63 87 94 98 100 97 99 100 105 109 111 114 113 114 116 114 115 113 106 99 92 86 75 64 52 32 22 16 10 359 350 346 341 337 336 335 334 332 329 326 324 322 321 320 320 318 315 310 306 304 302 299 297 295 293 291 289 288 286 285 284 283 283 283 282 282 283 283 282 283 283 284 283 284 286 289
210 187 234 276 298 324 293 308 326 334 265 274 328 345 30 15 25 45 42 53 64 74 89 91 93 95 94 98 102 105 108 108 109 109 110 111 110 108 101 94 90 83 76 61 47 31 19 14 8 1 353 346 340 337 335 333 331 328 325 323 321 318 316 315 314 314 313 311 308 305 302 300 298 297 296 295 292 290 288 286 286 286 285 284 284 283 283 282 282 281 281 282 284 284 285 285 286
284 207 201 246 308 278 238 292 321 325 10 4 335 330 25 17 23 41 42 54 62 71 83 82 84 91 97 101 102 104 106 107 107 106 106 106 104 98 89 85 79 62 50 37 27 17 11 5 358 352 345 342 339 337 335 331 328 323 320 318 317 316 316 316 316 317 317 315 313 311 308 305 303 301 299 295 291 289 287 286 286 285 285 284 283 283 283 283 282 282 282 282 285 287 287 286 285
318 243 212 225 257 268 274 331 345 359 3 359 18 356 313 5 43 33 26 49 53 59 69 71 77 86 94 98 99 103 106 106 106 104 102 100 95 90 84 72 54 41 34 26 16 7 360 354 349 345 342 341 339 337 334 330 328 325 323 323 322 322 321 321 322 322 321 319 317 316 314 311 309 307 304 299 295 292 290 288 287 285 284 283 282 282 282 282 281 281 283 283 285 286 288 287 285
330 266 200 197 181 251 309 348 3 359 291 316 49 95 260 326 43 18 20 62 58 52 55 60 70 80 89 95 99 104 104 104 104 101 98 94 86 77 65 50 37 29 23 13 2 354 349 347 344 342 341 340 337 335 333 331 329 327 326 326 325 323 321 321 320 320 319 317 315 315 313 311 311 309 307 305 302 300 297 294 291 288 286 284 284 284 284 284 283 282 283 284 285 285 286 288 286
295 241 149 185 288 278 274 326 199 241 280 327 22 114 241 300 24 351 23 73 65 49 44 52 65 77 90 98 103 105 104 104 102 98 91 81 69 56 43 33 22 14 6 355 348 345 344 342 341 340 340 339 337 335 333 332 330 328 325 324 323 321 319 319 318 317 317 316 314 314 312 311 311 310 310 309 307 305 302 299 296 293 292 290 289 289 289 289 288 286 285 285 285 285 286 287 287
273 209 170 249 295 266 198 146 185 287 11 327 339 49 264 282 351 38 21 79 71 58 53 50 65 78 91 100 107 107 104 101 95 87 77 63 49 37 27 17 7 357 349 344 343 342 340 340 339 338 337 337 337 335 333 331 329 326 323 322 321 320 318 317 317 317 318 317 315 315 314 313 312 311 311 311 308 306 304 301 299 298 297 297 297 296 296 295 294 293 291 290 289 288 288 288 287
278 165 143 65 61 56 96 105 118 45 34 291 303 6 59 282 275 153 26 85 93 79 77 66 76 86 95 102 108 107 102 95 85 72 59 44 31 21 10 0 351 343 341 339 338 338 337 338 338 337 337 338 337 335 332 329 326 324 323 322 322 321 319 318 318 319 320 320 319 318 317 316 315 314 313 312 309 307 306 304 303 302 302 302 303 303 301 300 298 297 296 295 295 294 293 292 290
315 60 356 34 47 39 50 64 98 59 4 267 281 313 84 326 285 169 61 332 241 150 122 105 93 94 101 107 110 108 100 87 73 54 38 25 12 3 354 346 339 335 334 332 332 335 336 337 338 339 339 338 336 333 330 328 326 326 325 325 324 323 321 320 320 322 322 322 321 320 319 318 317 316 313 311 310 309 308 308 308 307 307 307 307 306 305 303 301 300 298 298 297 297 296 295 293
353 39 354 359 1 16 25 355 45 61 318 264 277 295 132 239 272 314 347 330 300 158 144 134 112 103 108 113 113 106 93 76 54 29 15 6 356 348 342 336 331 328 327 328 332 335 336 338 339 339 339 338 336 333 331 330 331 330 329 327 326 323 322 322 322 323 323 322 321 319 318 317 315 313 311 310 310 310 310 310 310 310 310 311 310 310 308 306 304 301 300 298 297 297 296 295 294
16 29 30 26 357 7 12 340 9 61 255 243 307 343 314 207 232 349 344 344 357 97 124 132 127 119 118 117 113 98 69 36 19 7 357 351 345 339 335 330 327 325 326 330 334 337 340 341 341 341 340 338 336 334 334 334 333 332 330 326 324 321 320 320 320 321 322 321 320 318 316 316 314 312 312 312 312 312 312 312 312 312 311 311 311 311 310 309 307 305 302 300 298 297 296 295 294
10 29 56 54 38 22 338 302 341 306 275 268 309 344 298 262 43 5 348 5 38 81 107 124 124 119 115 104 87 45 10 355 353 351 345 341 338 334 330 326 324 325 329 335 339 341 343 343 341 341 340 339 337 336 336 334 333 332 329 325 322 320 319 320 320 321 321 321 319 317 316 315 313 313 313 313 313 313 313 312 312 312 311 311 311 310 310 310 309 307 305 303 301 299 297 295 294
343 194 113 90 99 68 290 254 277 297 292 297 307 306 237 277 21 17 19 44 63 80 94 104 102 94 77 54 31 6 351 342 341 340 336 333 330 327 323 321 322 327 334 340 342 343 343 342 341 340 340 339 337 336 335 334 333 331 330 327 324 323 322 322 322 322 322 321 319 317 315 313 312 312 312 312 312 312 312 312 312 311 311 311 311 310 310 309 309 308 306 305 303 302 299 297 294
296 168 81 37 150 148 215 210 199 264 317 312 295 224 189 136 66 39 54 59 64 73 79 79 73 60 41 22 3 353 344 339 337 332 329 325 322 320 319 319 324 332 339 343 344 344 343 342 341 340 339 337 336 336 335 334 332 330 330 329 327 326 325 324 323 323 322 320 318 315 314 312 311 310 310 310 311 311 311 311 311 310 310 310 309 309 309 308 308 306 305 304 304 303 301 298 296
324 52 32 293 188 137 114 300 312 56 39 300 300 302 310 66 72 349 28 49 54 61 66 68 65 54 43 28 6 351 340 336 334 327 321 317 314 314 315 318 328 338 343 345 344 344 343 341 341 340 339 338 337 337 337 336 333 330 330 330 330 329 328 326 325 323 322 320 317 314 312 311 311 310 310 311 311 311 311 310 309 309 309 308 308 308 308 308 307 305 304 303 303 303 301 299 297
46 35 263 242 84 92 98 13 350 32 26 285 344 335 302 328 331 318 326 326 41 48 57 64 58 48 39 24 9 357 346 337 332 324 314 307 306 307 311 322 335 342 344 343 343 343 342 341 341 341 339 338 337 337 338 336 333 331 331 332 331 331 330 328 326 324 322 320 317 314 313 312 312 312 312 312 312 311 311 310 309 308 308 308 308 308 307 307 306 304 303 302 302 302 300 299 298
76 105 247 82 66 1 29 38 355 8 323 296 316 309 292 255 240 301 285 244 151 34 54 65 43 34 22 5 359 355 349 340 333 325 309 299 299 301 312 328 337 341 342 342 343 342 341 341 340 340 338 337 337 338 337 336 334 333 333 333 332 332 331 330 328 326 323 320 318 315 314 314 313 313 313 312 312 312 312 311 311 310 310 309 309 308 308 307 306 304 303 302 301 301 299 298 298
45 49 359 35 115 168 5 30 104 54 310 303 318 323 319 211 254 301 289 241 135 68 10 42 30 14 0 351 347 345 343 338 335 326 305 290 291 300 320 334 339 342 342 341 341 340 340 340 340 339 338 337 338 338 337 336 336 336 335 334 333 332 332 330 329 328 325 322 319 317 317 316 315 315 314 314 314 314 314 313 313 312 312 312 311 310 310 309 306 305 304 303 302 301 299 297 297
13 31 12 355 344 69 51 30 98 100 271 273 328 312 287 235 327 300 292 84 99 61 19 18 3 353 349 346 341 338 337 335 335 327 301 284 292 314 331 338 340 341 340 339 339 339 340 340 339 338 337 337 337 338 337 337 337 336 335 334 333 332 331 330 329 328 326 323 321 319 320 319 318 318 318 317 317 317 316 315 315 314 314 314 313 312 311 310 307 306 305 304 303 302 300 299 298
95 66 30 342 348 69 66 351 338 65 158 187 181 290 280 270 341 283 93 71 61 45 28 6 347 343 343 344 341 337 335 333 331 323 300 291 313 330 337 340 340 339 338 338 338 339 340 339 337 337 337 337 337 337 337 336 336 335 334 334 332 331 330 329 328 327 326 325 322 321 321 320 320 320 320 320 319 319 318 317 316 316 315 314 313 312 311 309 307 306 305 305 304 303 301 300 299